Home   Weather   Brazzaville   Past weeks
Flag for Congo

Past Weather in Brazzaville, Congo — Yesterday and Last 2 Weeks

Now
73 °F

Passing clouds.


Feels Like: 72 °F
Forecast: 87 / 73 °F
Wind: 2 mph from North

Location: Brazzaville / Maya-Maya

Current Time: Oct 15, 2019 at 5:57:35 am

Latest Report: Oct 15, 2019 at 5:00 am


Visibility: 6 mi

Pressure: 29.95 "Hg

Humidity: 89%

Dew Point: 70 °F

Location of BrazzavilleLocation

Past Weather in Brazzaville — Graph

°F

Brazzaville Temperature Yesterday

Maximum temperature yesterday: 82 °F (at 1:00 pm)
Minimum temperature yesterday: 72 °F (at 4:00 am)
Average temperature yesterday: 76 °F

High & Low Weather Summary for the Past Weeks

 TemperatureHumidityPressure
High93 °F (Oct 3, 4:00 pm)100% (Oct 4, 8:00 am)30.04 "Hg (Oct 4, 8:00 am)
Low68 °F (Oct 3, 5:00 am)41% (Oct 3, 4:00 pm)29.71 "Hg (Oct 6, 4:00 pm)
Average78 °F77%29.89 "Hg
* Reported Sep 30 4:00 am — Oct 15 4:00 am, Brazzaville. Weather by CustomWeather, © 2019

Note: Actual official high and low records may vary slightly from our data, if they occured in-between our weather recording intervals... More about our weather records

Advertising

Brazzaville Weather History for the Previous 24 Hours

Scroll right to see more
 ConditionsComfort  
Time TempWeatherWind HumidityBarometerVisibility
4:00 am
Tue, Oct 15
73 °FPassing clouds.5 mph89%29.92 "Hg6 mi
3:00 am73 °FPassing clouds.6 mph94%29.92 "Hg6 mi
2:00 am73 °FPassing clouds.5 mph94%29.92 "Hg6 mi
1:00 am73 °FPassing clouds.5 mph94%29.92 "Hg6 mi
12:00 am73 °FPassing clouds.7 mph94%29.92 "Hg6 mi
11:00 pm
Mon, Oct 14
75 °FPassing clouds.5 mph89%29.95 "Hg6 mi
10:00 pm75 °FClear.3 mph89%29.95 "Hg6 mi
9:00 pm75 °FClear.5 mph89%29.92 "Hg6 mi
8:00 pm77 °FClear.2 mph79%29.89 "Hg6 mi
7:00 pm77 °FClear.3 mph83%29.86 "Hg6 mi
6:00 pm79 °FPassing clouds.6 mph74%29.83 "HgN/A
5:00 pm79 °FPassing clouds.7 mph79%29.86 "HgN/A
4:00 pm82 °FScattered clouds.6 mph70%29.83 "HgN/A
3:00 pm82 °FScattered clouds.5 mph70%29.83 "HgN/A
2:00 pm82 °FScattered clouds.5 mph70%29.89 "HgN/A
1:00 pm82 °FScattered clouds.2 mph66%29.92 "HgN/A
12:00 pm79 °FPartly sunny.2 mph79%29.95 "HgN/A
11:00 am75 °FPartly sunny.6 mph89%29.98 "HgN/A
10:00 am73 °FLight rain. Scattered clouds.8 mph94%30.01 "HgN/A
9:00 am72 °FLight rain. Scattered clouds.3 mph100%30.04 "HgN/A
8:00 am72 °FLight rain. Partly sunny.6 mph94%30.01 "Hg6 mi
7:00 am72 °FThunderstorms. Partly sunny.7 mph100%29.98 "Hg5 mi
6:00 am72 °FThunderstorms. Broken clouds.9 mph100%29.95 "Hg3 mi
5:00 am72 °FThunderstorms. Partly cloudy.9 mph100%29.95 "Hg4 mi
Weather by CustomWeather, © 2019

See weather overview